| time (UTC) | temp F | wind direction | speed MPH | gust MPH | rain 1hr in | rain 24hr in | rain mn in | humidity % | barometer mb |
| 20260506095310 | 55 | 59 | 4.0 | 6.0 | 0.00 | 0.00 | 0.00 | 95 | 1012.6 |
| 20260506094310 | 54 | 89 | 2.0 | 4.0 | 0.00 | 0.00 | 0.00 | 95 | 1012.4 |
| 20260506093310 | 54 | 76 | 2.0 | 6.0 | 0.00 | 0.00 | 0.00 | 96 | 1012.3 |
| 20260506091310 | 54 | 105 | 3.0 | 5.0 | 0.00 | 0.00 | 0.00 | 97 | 1012.3 |
| 20260506090310 | 54 | 28 | 2.0 | 5.0 | 0.00 | 0.00 | 0.00 | 97 | 1012.2 |
| 20260506085310 | 54 | 35 | 1.0 | 3.0 | 0.00 | 0.00 | 0.00 | 97 | 1012.1 |
| 20260506084310 | 54 | 142 | 1.0 | 2.0 | 0.00 | 0.00 | 0.00 | 97 | 1012.1 |
| 20260506083310 | 54 | 89 | 1.0 | 4.0 | 0.00 | 0.00 | 0.00 | 98 | 1012.0 |
| 20260506082310 | 54 | 328 | 1.0 | 3.0 | 0.00 | 0.00 | 0.00 | 98 | 1012.0 |
| 20260506081309 | 53 | 340 | 1.0 | 3.0 | 0.00 | 0.00 | 0.00 | 98 | 1012.0 |
| 20260506080310 | 53 | 1 | 2.0 | 3.0 | 0.00 | 0.00 | 0.00 | 98 | 1011.9 |
| 20260506071309 | 51 | 288 | 3.0 | 6.0 | 0.00 | 0.00 | 0.00 | 98 | 1011.7 |
| 20260506070309 | 51 | 286 | 3.0 | 5.0 | 0.00 | 0.00 | 0.00 | 98 | 1011.8 |
| 20260506061309 | 50 | 269 | 1.0 | 5.0 | 0.00 | 0.00 | 0.00 | 98 | 1011.3 |
| 20260506060309 | 50 | 262 | 3.0 | 5.0 | 0.00 | 0.00 | 0.00 | 98 | 1011.4 |
| 20260506051309 | 50 | 276 | 4.0 | 5.0 | 0.00 | 0.00 | 0.00 | 98 | 1011.2 |
| 20260506050309 | 50 | 283 | 3.0 | 5.0 | 0.00 | 0.00 | 0.00 | 98 | 1011.2 |
| 20260506044309 | 50 | 269 | 1.0 | 3.0 | 0.00 | 0.00 | 0.00 | 97 | 1011.2 |
| 20260506043309 | 50 | 240 | 1.0 | 3.0 | 0.00 | 0.00 | 0.00 | 97 | 1011.2 |
| 20260506042309 | 50 | 241 | 1.0 | 4.0 | 0.00 | 0.00 | 0.00 | 97 | 1011.1 |
| 20260506041309 | 50 | 269 | 3.0 | 4.0 | 0.00 | 0.00 | 0.00 | 97 | 1011.1 |
| 20260506040309 | 50 | 269 | 1.0 | 5.0 | 0.00 | 0.00 | 0.00 | 97 | 1011.1 |
| 20260506035309 | 50 | 288 | 4.0 | 6.0 | 0.00 | 0.00 | 0.00 | 97 | 1011.1 |
| 20260506034309 | 50 | 274 | 3.0 | 6.0 | 0.00 | 0.00 | 0.00 | 97 | 1011.2 |
| 20260506033310 | 50 | 262 | 4.0 | 6.0 | 0.00 | 0.00 | 0.00 | 98 | 1011.2 |
| 20260506032309 | 50 | 272 | 4.0 | 6.0 | 0.00 | 0.00 | 0.00 | 98 | 1011.3 |
| 20260506031309 | 51 | 297 | 3.0 | 6.0 | 0.00 | 0.00 | 0.00 | 98 | 1011.3 |
| 20260506030309 | 51 | 274 | 4.0 | 7.0 | 0.00 | 0.00 | 0.00 | 97 | 1011.3 |
| 20260506023312 | 51 | 46 | 0.0 | 1.0 | 0.00 | 0.00 | 0.00 | 97 | 1011.3 |
| 20260506022311 | 51 | 223 | 0.0 | 2.0 | 0.00 | 0.00 | 0.00 | 97 | 1011.4 |
| 20260506021312 | 51 | 206 | 1.0 | 2.0 | 0.00 | 0.00 | 0.00 | 97 | 1011.4 |
| 20260506020311 | 51 | 1 | 0.0 | 3.0 | 0.00 | 0.00 | 0.00 | 97 | 1011.4 |
| 20260506015311 | 51 | 340 | 1.0 | 3.0 | 0.00 | 0.00 | 0.00 | 97 | 1011.4 |
| 20260506014312 | 51 | 306 | 2.0 | 3.0 | 0.00 | 0.00 | 0.00 | 97 | 1011.5 |
| 20260506013312 | 51 | 293 | 3.0 | 4.0 | 0.00 | 0.00 | 0.00 | 97 | 1011.5 |
| 20260506012311 | 51 | 28 | 0.0 | 2.0 | 0.00 | 0.00 | 0.00 | 97 | 1011.6 |
| 20260506011312 | 51 | 314 | 0.0 | 3.0 | 0.00 | 0.00 | 0.00 | 97 | 1011.6 |
| 20260506010311 | 51 | 349 | 1.0 | 3.0 | 0.00 | 0.00 | 0.00 | 97 | 1011.7 |
| 20260506005312 | 51 | 15 | 2.0 | 4.0 | 0.00 | 0.00 | 0.00 | 97 | 1011.8 |
| 20260506003311 | 51 | 324 | 2.0 | 3.0 | 0.00 | 0.00 | 0.00 | 97 | 1011.8 |
| 20260506002311 | 51 | 314 | 2.0 | 3.0 | 0.00 | 0.00 | 0.00 | 97 | 1011.8 |
| 20260506001311 | 51 | 314 | 2.0 | 3.0 | 0.00 | 0.00 | 0.00 | 97 | 1011.9 |
| 20260506000311 | 51 | 314 | 2.0 | 3.0 | 0.00 | 0.00 | 0.00 | 97 | 1011.9 |
| 20260505235311 | 51 | 340 | 2.0 | 5.0 | 0.00 | 0.00 | 0.00 | 97 | 1012.0 |
| 20260505234311 | 51 | 302 | 3.0 | 5.0 | 0.00 | 0.00 | 0.00 | 97 | 1012.0 |
| 20260505233311 | 51 | 321 | 1.0 | 3.0 | 0.00 | 0.00 | 0.00 | 97 | 1012.0 |
| 20260505232311 | 51 | 347 | 3.0 | 4.0 | 0.00 | 0.00 | 0.00 | 97 | 1012.1 |
| 20260505230311 | 51 | 331 | 1.0 | 4.0 | 0.00 | 0.00 | 0.00 | 97 | 1012.2 |
| 20260505225311 | 51 | 324 | 1.0 | 3.0 | 0.00 | 0.00 | 0.00 | 97 | 1012.2 |
| 20260505224311 | 51 | 279 | 1.0 | 3.0 | 0.00 | 0.00 | 0.00 | 97 | 1012.2 |
| 20260505223311 | 51 | 283 | 1.0 | 3.0 | 0.00 | 0.00 | 0.00 | 97 | 1012.3 |
| 20260505222311 | 52 | 295 | 2.0 | 5.0 | 0.00 | 0.00 | 0.00 | 97 | 1012.3 |
| 20260505220311 | 52 | 320 | 3.0 | 4.0 | 0.00 | 0.00 | 0.00 | 97 | 1012.3 |
| 20260505215311 | 52 | 317 | 2.0 | 6.0 | 0.00 | 1.46 | 1.46 | 97 | 1012.3 |
| 20260505214311 | 51 | 314 | 3.0 | 7.0 | 0.00 | 1.46 | 1.46 | 97 | 1012.3 |
| 20260505213311 | 51 | 319 | 2.0 | 4.0 | 0.00 | 1.46 | 1.46 | 97 | 1012.5 |
| 20260505212311 | 51 | 324 | 4.0 | 6.0 | 0.00 | 1.46 | 1.46 | 97 | 1012.4 |
| 20260505210311 | 52 | 331 | 4.0 | 6.0 | 0.00 | 1.46 | 1.46 | 97 | 1012.4 |
| 20260505205311 | 52 | 295 | 4.0 | 8.0 | 0.00 | 1.46 | 1.46 | 97 | 1012.4 |
| 20260505204311 | 52 | 317 | 4.0 | 8.0 | 0.00 | 1.46 | 1.46 | 97 | 1012.4 |
| 20260505203311 | 52 | 321 | 5.0 | 9.0 | 0.00 | 1.46 | 1.46 | 97 | 1012.3 |
| 20260505202311 | 52 | 347 | 4.0 | 9.0 | 0.00 | 1.46 | 1.46 | 97 | 1012.3 |
| 20260505201311 | 52 | 309 | 5.0 | 9.0 | 0.00 | 1.46 | 1.46 | 97 | 1012.3 |
| 20260505200311 | 52 | 321 | 4.0 | 7.0 | 0.00 | 1.46 | 1.46 | 97 | 1012.1 |
| 20260505195311 | 52 | 16 | 4.0 | 10.0 | 0.00 | 1.46 | 1.46 | 97 | 1012.1 |
| 20260505194312 | 52 | 334 | 5.0 | 11.0 | 0.00 | 1.46 | 1.46 | 97 | 1012.0 |
| 20260505193311 | 52 | 305 | 6.0 | 9.0 | 0.00 | 1.46 | 1.46 | 98 | 1011.9 |
| 20260505191311 | 52 | 297 | 6.0 | 9.0 | 0.00 | 1.46 | 1.46 | 98 | 1011.9 |
| 20260505190311 | 52 | 338 | 3.0 | 7.0 | 0.00 | 1.46 | 1.46 | 98 | 1012.0 |
| 20260505185311 | 52 | 11 | 4.0 | 10.0 | 0.00 | 1.46 | 1.46 | 98 | 1011.8 |
| 20260505184311 | 52 | 18 | 4.0 | 8.0 | 0.00 | 1.46 | 1.46 | 98 | 1011.8 |
| 20260505183311 | 52 | 316 | 6.0 | 10.0 | 0.00 | 1.46 | 1.46 | 98 | 1011.8 |
| 20260505182311 | 53 | 324 | 4.0 | 9.0 | 0.00 | 1.46 | 1.46 | 98 | 1011.8 |
| 20260505181311 | 53 | 27 | 5.0 | 13.0 | 0.00 | 1.46 | 1.46 | 98 | 1011.7 |
| 20260505175311 | 53 | 340 | 5.0 | 9.0 | 0.00 | 1.46 | 1.46 | 98 | 1011.9 |
| 20260505174311 | 53 | 290 | 5.0 | 13.0 | 0.00 | 1.46 | 1.46 | 98 | 1011.9 |
| 20260505173311 | 53 | 307 | 6.0 | 11.0 | 0.00 | 1.46 | 1.46 | 99 | 1011.8 |
| 20260505172311 | 53 | 1 | 7.0 | 11.0 | 0.00 | 1.46 | 1.46 | 99 | 1011.8 |
| 20260505170311 | 54 | 37 | 5.0 | 9.0 | 0.00 | 1.46 | 1.46 | 99 | 1011.9 |
| 20260505165311 | 54 | 13 | 7.0 | 9.0 | 0.00 | 1.46 | 1.46 | 99 | 1011.9 |
| 20260505164310 | 53 | 322 | 6.0 | 11.0 | 0.01 | 1.46 | 1.46 | 99 | 1011.9 |
| 20260505163311 | 54 | 4 | 6.0 | 10.0 | 0.02 | 1.46 | 1.46 | 99 | 1011.9 |
| 20260505162310 | 53 | 354 | 6.0 | 10.0 | 0.02 | 1.46 | 1.46 | 99 | 1011.8 |
| 20260505161311 | 53 | 348 | 4.0 | 15.0 | 0.02 | 1.46 | 1.46 | 99 | 1012.0 |
| 20260505160311 | 53 | 351 | 5.0 | 12.0 | 0.03 | 1.46 | 1.46 | 99 | 1011.9 |
| 20260505153310 | 53 | 354 | 7.0 | 12.0 | 0.02 | 1.45 | 1.45 | 99 | 1011.9 |
| 20260505152310 | 53 | 333 | 4.0 | 12.0 | 0.03 | 1.44 | 1.44 | 99 | 1011.9 |
| 20260505150310 | 53 | 21 | 5.0 | 11.0 | 0.04 | 1.43 | 1.43 | 99 | 1011.8 |
| 20260505140310 | 53 | 18 | 5.0 | 11.0 | 0.06 | 1.39 | 1.39 | 99 | 1011.8 |
| 20260505130310 | 53 | 309 | 3.0 | 9.0 | 0.05 | 1.34 | 1.34 | 99 | 1011.8 |
| 20260505124310 | 53 | 44 | 6.0 | 10.0 | 0.04 | 1.32 | 1.32 | 99 | 1011.7 |
| 20260505123312 | 53 | 331 | 5.0 | 11.0 | 0.03 | 1.31 | 1.31 | 99 | 1011.7 |
| 20260505122310 | 53 | 32 | 4.0 | 9.0 | 0.03 | 1.31 | 1.31 | 99 | 1011.8 |
| 20260505121310 | 53 | 11 | 4.0 | 9.0 | 0.03 | 1.30 | 1.30 | 99 | 1011.7 |
| 20260505120310 | 53 | 11 | 3.0 | 10.0 | 0.03 | 1.29 | 1.29 | 99 | 1011.8 |
| 20260505115310 | 53 | 20 | 5.0 | 10.0 | 0.04 | 1.29 | 1.29 | 99 | 1011.8 |
| 20260505114310 | 53 | 46 | 3.0 | 7.0 | 0.03 | 1.28 | 1.28 | 99 | 1011.8 |
| 20260505113310 | 53 | 300 | 3.0 | 10.0 | 0.04 | 1.28 | 1.28 | 99 | 1011.9 |
| 20260505112310 | 53 | 25 | 3.0 | 10.0 | 0.03 | 1.28 | 1.28 | 99 | 1011.8 |
| 20260505111310 | 53 | 349 | 4.0 | 7.0 | 0.04 | 1.27 | 1.27 | 99 | 1011.9 |
| 20260505110310 | 53 | 124 | 2.0 | 11.0 | 0.04 | 1.26 | 1.26 | 99 | 1011.9 |
| 20260505101310 | 53 | 178 | 1.0 | 8.0 | 0.07 | 1.23 | 1.23 | 99 | 1011.7 |